Location: Crescent
(42.8242°N, 73.7329°W)
Time: 06:17:44
(UTC+00:00)

Vanguard 1 Rocket - All Passes

Search period start: 18 February 2026 00:00
Search period end: 28 February 2026 00:00
Orbit: 652 x 4215 km, 34.3° (Epoch: 17 February)

Date Brightness Start Highest point End Pass type
(mag) Time Alt. Az. Time Alt. Az. Time Alt. Az.
18 Feb - 00:56:46 10° W 01:14:34 33° SW 01:35:26 10° SSE visible
18 Feb - 16:29:54 10° S 16:36:11 25° SE 16:46:11 10° E daylight
18 Feb - 18:51:22 10° WSW 19:01:07 57° SSE 19:19:57 10° E daylight
18 Feb - 21:15:39 10° W 21:29:27 61° S 21:53:17 10° ESE daylight
18 Feb - 23:42:14 10° W 23:59:28 43° SSW 00:22:34 10° SSE visible
19 Feb - 02:15:23 10° W 02:28:29 18° SW 02:42:25 10° SSW visible
19 Feb - 15:22:06 10° SSE 15:24:45 12° SE 15:27:52 10° ESE daylight
19 Feb - 17:40:13 10° SW 17:48:09 45° SSE 18:03:01 10° E daylight
19 Feb - 20:03:29 10° WSW 20:14:57 62° S 20:36:33 10° ESE daylight
19 Feb - 22:28:49 10° W 22:44:17 51° SSW 23:08:09 10° SE visible
20 Feb - 00:57:48 10° W 01:13:56 27° SW 01:33:04 10° S visible
20 Feb - 16:29:45 10° SSW 16:36:00 29° SE 16:46:24 10° E daylight
20 Feb - 18:51:47 10° WSW 19:01:11 58° S 19:19:34 10° E daylight
20 Feb - 21:16:08 10° W 21:29:23 57° SSW 21:52:28 10° ESE daylight
20 Feb - 23:42:55 10° W 23:59:01 37° SSW 00:20:50 10° SSE visible
21 Feb - 02:19:33 10° WSW 02:27:48 13° SW 02:36:31 10° SSW visible
21 Feb - 15:20:40 10° SSE 15:24:29 15° SE 15:29:27 10° E daylight
21 Feb - 17:40:32 10° SW 17:48:12 48° SSE 18:02:48 10° E daylight
21 Feb - 20:03:59 10° W 20:15:02 60° S 20:35:57 10° ESE daylight
21 Feb - 22:29:23 10° W 22:44:04 45° SSW 23:06:50 10° SE visible
22 Feb - 00:59:22 10° W 01:13:22 22° SW 01:29:58 10° S visible
22 Feb - 16:29:48 10° SSW 16:35:57 33° SSE 16:46:29 10° E daylight
22 Feb - 18:52:16 10° WSW 19:01:21 59° S 19:19:09 10° ESE daylight
22 Feb - 21:16:41 10° W 21:29:22 53° SSW 21:51:29 10° SE daylight
22 Feb - 23:43:50 10° W 23:58:39 31° SW 00:18:40 10° SSE visible
23 Feb - 15:20:02 10° S 15:24:19 19° SE 15:30:19 10° E daylight
23 Feb - 17:40:55 10° WSW 17:48:20 51° SSE 18:02:34 10° E daylight
23 Feb - 20:04:32 10° W 20:15:09 57° S 20:35:16 10° ESE daylight
23 Feb - 22:30:04 10° W 22:43:54 39° SSW 23:05:12 10° SSE visible
24 Feb - 01:01:55 10° WSW 01:12:55 16° SW 01:25:40 10° SSW visible
24 Feb - 16:30:01 10° SW 16:36:01 37° SSE 16:46:31 10° E daylight
24 Feb - 18:52:48 10° WSW 19:01:33 57° S 19:18:42 10° ESE daylight
24 Feb - 21:17:17 10° W 21:29:22 47° SSW 21:50:17 10° SE daylight
24 Feb - 23:45:09 10° W 23:58:21 25° SW 00:15:55 10° S visible
25 Feb - 15:19:48 10° SSW 15:24:17 22° SE 15:30:51 10° E daylight
25 Feb - 17:41:23 10° WSW 17:48:34 52° SSE 18:02:20 10° E daylight
25 Feb - 20:05:07 10° W 20:15:17 52° S 20:34:26 10° ESE daylight
25 Feb - 22:30:57 10° W 22:43:46 33° SSW 23:03:12 10° SSE visible
26 Feb - 01:07:25 10° WSW 01:12:36 11° SW 01:18:11 10° SSW visible
26 Feb - 16:30:21 10° SW 16:36:12 41° SSE 16:46:30 10° E daylight
26 Feb - 18:53:22 10° WSW 19:01:47 55° S 19:18:11 10° ESE daylight
26 Feb - 21:18:00 10° W 21:29:24 41° SSW 21:48:50 10° SE daylight
26 Feb - 23:47:05 10° WSW 23:58:08 19° SW 00:12:18 10° S visible
27 Feb - 15:19:48 10° SSW 15:24:22 26° SSE 15:31:14 10° E daylight
27 Feb - 17:41:56 10° WSW 17:48:51 52° S 18:02:04 10° ESE daylight
27 Feb - 20:05:46 10° W 20:15:28 47° SSW 20:33:26 10° SE daylight
27 Feb - 22:32:07 10° W 22:43:43 27° SSW 23:00:44 10° SSE daylight
